Terminal Aerodrome Forecast
Issued by NWS Louisville, KY

Home | Current Version | Previous Version | Text Only | Print | Product List | Glossary On
Versions: 1 2 3 4 5 6 7 8 9 10 11 12 13
000
FTUS43 KLMK 220800 AAA
TAFLEX
TAF AMD
KLEX 220800Z 2208/2306 31004KT P6SM SKC
      TEMPO 2208/2210 4SM BR
     FM221000 VRB04KT 4SM BR SKC
      TEMPO 2210/2213 2SM BR
     FM221500 33009G15KT P6SM SCT060
     FM230000 VRB05KT P6SM FEW050=

USA.gov is the U.S. government's official web portal to all federal, state and local government web resources and services.